GW6468 Weather Reports


Display with metric or nautical units.
time (UTC)temp
F
wind
direction
speed
MPH
gust
MPH
rain 1hr
in
rain 24hr
in
rain mn
in
humidity
%
barometer
mb
20260906064516 71 135 0.0 1.0 0.00 0.31 0.00 74 1012.3
20260906063024 70 132 0.0 2.0 0.00 0.31 0.00 74 1012.6
20260906061535 70 120 1.0 2.0 0.00 0.31 0.00 74 1012.8
20260906060034 70 119 0.0 1.0 0.00 0.31 0.00 74 1012.8
20260906054552 70 118 0.0 3.0 0.00 0.31 0.00 74 1013.0
20260906053018 70 130 0.0 2.0 0.00 0.31 0.00 74 1012.9
20260906051525 71 117 1.0 2.0 0.00 0.31 0.00 74 1013.1
20260906050030 71 121 1.0 3.0 0.00 0.31 0.00 74 1013.2
20260906044536 71 119 0.0 3.0 0.00 0.31 0.00 74 1013.2
20260906043033 72 114 1.0 3.0 0.00 0.31 0.00 74 1013.4
20260906041524 72 124 1.0 2.0 0.00 0.31 0.00 74 1013.3
20260906040054 72 129 0.0 1.0 0.00 0.31 0.00 74 1013.6
20260906034533 72 129 0.0 2.0 0.00 0.31 0.31 74 1013.6
20260906033044 73 118 2.0 3.0 0.00 0.31 0.31 74 1013.6
20260906031535 73 127 0.0 1.0 0.00 0.31 0.31 74 1013.6
20260906030026 73 127 0.0 2.0 0.00 0.31 0.31 74 1013.4
20260906024529 73 143 0.0 1.0 0.00 0.31 0.31 74 1013.3
20260906023031 73 127 0.0 1.0 0.00 0.31 0.31 74 1013.3
20260906021534 73 122 0.0 3.0 0.00 0.31 0.31 74 1013.1
20260906020034 73 116 0.0 2.0 0.00 0.31 0.31 74 1013.1
20260906014529 73 134 0.0 2.0 0.00 0.31 0.31 74 1013.0
20260906013006 74 143 0.0 1.0 0.00 0.31 0.31 74 1012.9
20260906011514 74 149 0.0 1.0 0.00 0.31 0.31 74 1012.7
20260906010018 76 167 0.0 0.0 0.00 0.31 0.31 74 1012.8
20260906004523 77 168 0.0 1.0 0.00 0.31 0.31 74 1013.0
20260906003027 76 167 0.0 0.0 0.00 0.31 0.31 74 1012.8
20260906001507 77 167 0.0 0.0 0.00 0.31 0.31 74 1012.4
20260906000009 78 167 0.0 0.0 0.00 0.31 0.31 75 1012.2
20260905234518 80 149 0.0 1.0 0.00 0.31 0.31 75 1012.1
20260905233020 85 126 0.0 1.0 0.00 0.31 0.31 75 1012.2
20260905231527 85 125 0.0 1.0 0.00 0.31 0.31 76 1012.0
20260905230006 85 124 0.0 2.0 0.00 0.31 0.31 75 1011.9
20260905224520 85 105 1.0 3.0 0.00 0.31 0.31 75 1012.0
20260905223020 85 92 1.0 6.0 0.00 0.31 0.31 75 1012.0
20260905221522 85 354 4.0 6.0 0.00 0.31 0.31 75 1011.8
20260905220027 85 325 2.0 7.0 0.00 0.31 0.31 75 1011.9
20260905214507 84 27 3.0 7.0 0.00 0.31 0.31 75 1012.3
20260905213011 83 27 5.0 6.0 0.00 0.31 0.31 75 1012.7
20260905211536 82 11 3.0 7.0 0.00 0.31 0.31 75 1012.4
20260905210038 80 344 4.0 7.0 0.00 0.31 0.31 75 1012.4
20260905204532 76 39 2.0 3.0 0.00 0.31 0.31 74 1012.2
20260905203008 76 130 0.0 3.0 0.00 0.31 0.31 74 1012.1
20260905201512 74 89 1.0 4.0 0.00 0.31 0.31 74 1012.6
20260905200026 74 145 1.0 6.0 0.00 0.31 0.31 74 1012.9
20260905194527 74 309 1.0 2.0 0.00 0.31 0.31 74 1013.1
20260905193031 74 185 0.0 2.0 0.00 0.31 0.31 74 1013.0
20260905191508 73 136 3.0 4.0 0.00 0.31 0.31 74 1012.7
20260905190014 72 188 0.0 6.0 0.00 0.31 0.31 74 1012.3
20260905184529 72 156 0.0 2.0 0.07 0.31 0.31 74 1012.1
20260905183029 71 195 0.0 2.0 0.31 0.31 0.31 74 1012.2
20260905181532 70 78 2.0 7.0 0.31 0.31 0.31 74 1013.2
20260905180014 70 232 5.0 15.0 0.31 0.31 0.31 74 1013.2
20260905174524 73 151 16.0 35.0 0.24 0.24 0.24 74 1015.0
20260905173024 93 49 2.0 9.0 0.00 0.00 0.00 76 1013.9
20260905171531 95 115 3.0 7.0 0.00 0.00 0.00 77 1013.8
20260905170033 95 108 4.0 7.0 0.00 0.00 0.00 77 1013.8
20260905164523 95 187 2.0 7.0 0.00 0.00 0.00 77 1013.8
20260905163024 94 47 4.0 9.0 0.00 0.00 0.00 77 1014.0
20260905161526 93 4 4.0 10.0 0.00 0.00 0.00 76 1014.2
20260905160008 93 128 2.0 6.0 0.00 0.00 0.00 76 1014.5
20260905154512 93 142 3.0 9.0 0.00 0.00 0.00 76 1014.4
20260905153019 92 29 3.0 6.0 0.00 0.00 0.00 76 1014.3
20260905151525 91 34 1.0 7.0 0.00 0.00 0.00 76 1014.3
20260905150030 91 341 1.0 5.0 0.00 0.00 0.00 76 1014.3
20260905144532 88 195 1.0 7.0 0.00 0.00 0.00 76 1014.4
20260905143011 87 338 4.0 6.0 0.00 0.00 0.00 76 1014.5
20260905141519 85 42 2.0 5.0 0.00 0.00 0.00 75 1014.6
20260905140025 85 72 1.0 4.0 0.00 0.00 0.00 75 1014.3
20260905134529 83 19 2.0 3.0 0.00 0.00 0.00 75 1014.5
20260905133037 82 72 2.0 4.0 0.00 0.00 0.00 75 1014.7
20260905131523 81 122 1.0 3.0 0.00 0.00 0.00 75 1014.6
20260905130017 80 117 1.0 3.0 0.00 0.00 0.00 75 1014.9
20260905124526 77 114 0.0 1.0 0.00 0.00 0.00 74 1014.8
20260905123030 76 126 0.0 1.0 0.00 0.00 0.00 74 1014.9
20260905121531 74 132 0.0 1.0 0.00 0.00 0.00 74 1014.7
20260905120034 72 123 1.0 2.0 0.00 0.00 0.00 74 1014.5
20260905114522 71 131 0.0 0.0 0.00 0.00 0.00 74 1014.4
20260905113038 0 0.0 0.0 0.00 0.00 0.00 1014.4
20260905111536 0 0.0 0.0 0.00 0.00 0.00 1014.3
20260905110037 0 0.0 0.0 0.00 0.00 0.00 1014.0
20260905104540 0 0.0 0.0 0.00 0.00 0.00 1013.9
20260905103038 0 0.0 0.0 0.00 0.00 0.00 1013.8
20260905101544 0 0.0 0.0 0.00 0.00 0.00 1013.7
20260905100108 0 0.0 0.0 0.00 0.00 0.00 1013.7
20260905094545 0 0.0 0.0 0.00 0.00 0.00 1013.7
20260905093038 0 0.0 0.0 0.00 0.00 0.00 1013.5
20260905091550 0 0.0 0.0 0.00 0.00 0.00 1013.6
20260905090036 0 0.0 0.0 0.00 0.00 0.00 1013.7
20260905084543 0 0.0 0.0 0.00 0.00 0.00 1013.7
20260905083051 0 140 0.0 1.0 0.00 0.00 0.00 74 1014.0
20260905081533 72 139 0.0 1.0 0.00 0.00 0.00 74 1014.0
20260905080031 72 139 0.0 1.0 0.00 0.00 0.00 74 1014.2
20260905074537 72 129 0.0 2.0 0.00 0.00 0.00 74 1014.3
20260905073026 72 117 0.0 2.0 0.00 0.00 0.00 74 1014.3
20260905071506 73 130 0.0 1.0 0.00 0.00 0.00 74 1014.4
20260905070014 73 133 0.0 2.0 0.00 0.00 0.00 74 1014.5